Location: Rio Tanui
(39.9167°N, 8.5167°E)
Time: 18:14:14
(UTC+00:00)

Meteor 2-2 Rocket - Pass Details

Date: 22 June 2024
Orbit: 851 x 928 km, 81.3° (Epoch: 14 July)

Event Time Altitude Azimuth Distance (km) Brightness Sun altitude
Rises 01:26:47 0° 2° (N) 3,429 8.4 -20.9°
Reaches altitude 10° 01:29:37 10° 15° (NNE) 2,487 7.7 -20.6°
Maximum altitude 01:34:17 26° 71° (ENE) 1,613 6.2 -20.1°
Drops below altitude 10° 01:38:56 10° 127° (SE) 2,483 6.6 -19.7°
Sets 01:41:45 0° 140° (SE) 3,423 7.2 -19.4°
